Date String (YYYY-MM-DD hh:mm:ss) UTC,Instrument flags,Ambient pressure (hPa),Sample flow (lpm),Bypass flow (lpm),Sample temperature (°C),Ambient temperature (°C),ASC tube jacket temperature (°C),LED temperature (°C),Box temperature (°C),Sample RH (%),Span deviation,Mass concentration (μg/m³),Mass concentration (μg/m³),Mass concentration (μg/m³)
DateTimeUTC,F1_M11,P_M11,Q1_M11,Q2_M11,T1_M11,T2_M11,T3_M11,T4_M11,T5_M11,U1_M11,ZSPAN_M11,X0_M11,X2_M11,X1_M11
2021-10-12 14:00:00,,0815.4,4.99,0.00,28.2,27.2,00.0,37.4,29.9,16.8,0001.1,0019.16,0008.17,0006.46
2021-10-12 14:01:00,,0815.3,5.00,0.00,28.2,27.2,00.0,37.4,29.9,16.8,0001.3,0018.91,0008.12,0006.44
2021-10-12 14:02:00,,0815.3,5.00,0.00,28.2,27.2,00.0,37.4,29.9,16.8,0001.3,0018.94,0008.00,0006.41
2021-10-12 14:03:00,,0815.4,4.99,0.00,28.2,27.2,00.0,37.4,30.0,16.9,0001.5,0019.68,0007.96,0006.37
2021-10-12 14:04:00,,0815.4,4.99,0.00,28.2,27.2,00.0,37.4,30.0,16.8,0001.8,0020.07,0007.96,0006.35
2021-10-12 14:05:00,,0815.5,5.00,0.00,28.2,27.2,00.0,37.4,30.0,16.8,0002.1,0019.98,0008.02,0006.33
2021-10-12 14:06:00,,0815.6,5.00,0.00,28.2,27.2,00.0,37.4,30.0,16.8,0002.3,0020.72,0008.01,0006.31
2021-10-12 14:07:00,,0815.5,4.99,0.00,28.2,27.2,00.0,37.4,30.0,16.9,0002.5,0020.24,0008.01,0006.28
2021-10-12 14:08:00,,0816.0,4.99,0.00,28.2,27.2,00.0,37.4,30.0,16.8,0002.6,0020.34,0007.90,0006.24
2021-10-12 14:09:00,,0816.1,5.01,0.00,28.2,27.2,00.0,37.4,30.0,16.8,0002.5,0020.62,0007.83,0006.21
2021-10-12 14:10:00,,0816.0,5.00,0.00,28.2,27.2,00.0,37.4,29.9,16.9,0002.6,0019.75,0007.71,0006.15
2021-10-12 14:11:00,,0816.1,4.99,0.00,28.2,27.2,00.0,37.4,29.9,16.9,0002.6,0019.91,0007.60,0006.10
2021-10-12 14:12:00,,0816.1,5.01,0.00,28.2,27.2,00.0,37.4,29.9,16.9,0002.8,0020.64,0007.61,0006.07
2021-10-12 14:13:00,,0816.0,5.01,0.00,28.2,27.2,00.0,37.4,29.9,17.0,0003.0,0020.49,0007.60,0006.01
2021-10-12 14:14:00,,0816.1,4.99,0.00,28.2,27.2,00.0,37.4,30.0,17.0,0003.1,0019.90,0007.55,0005.97
2021-10-12 14:15:00,,0816.0,4.99,0.00,28.2,27.2,00.0,37.4,30.0,17.0,0003.2,0019.95,0007.46,0005.91
2021-10-12 14:16:00,,0816.1,5.02,0.00,28.2,27.2,00.0,37.4,29.9,17.0,0003.0,0019.56,0007.37,0005.87
2021-10-12 14:17:00,,0816.0,5.00,0.00,28.2,27.2,00.0,37.3,29.9,17.0,0002.6,0019.52,0007.36,0005.81
2021-10-12 14:18:00,,0816.1,5.00,0.00,28.2,27.2,00.0,37.4,29.9,17.0,0002.5,0018.73,0007.33,0005.77
2021-10-12 14:19:00,,0816.0,5.01,0.00,28.2,27.2,00.0,37.4,29.9,16.9,0002.8,0019.01,0007.26,0005.72
2021-10-12 14:20:00,,0816.1,5.00,0.00,28.2,27.2,00.0,37.4,29.9,17.0,0002.8,0019.28,0007.19,0005.67
2021-10-12 14:21:00,,0816.1,5.00,0.00,28.2,27.2,00.0,37.4,29.9,16.9,0002.6,0019.25,0007.11,0005.62
2021-10-12 14:22:00,,0816.0,5.01,0.00,28.2,27.2,00.0,37.4,29.9,17.0,0002.5,0018.60,0007.03,0005.55
2021-10-12 14:23:00,,0816.0,5.01,0.00,28.2,27.2,00.0,37.3,29.9,16.8,0002.5,0018.23,0006.93,0005.49
2021-10-12 14:24:00,,0815.8,5.00,0.00,28.2,27.2,00.0,37.4,29.9,16.9,0002.5,0017.93,0006.81,0005.43
2021-10-12 14:25:00,,0816.1,5.01,0.00,28.2,27.2,00.0,37.4,30.0,16.9,0002.2,0018.63,0006.78,0005.39
2021-10-12 14:26:00,,0816.1,4.99,0.00,28.2,27.2,00.0,37.4,30.0,16.9,0002.1,0018.66,0006.74,0005.34
2021-10-12 14:27:00,,0816.1,5.00,0.00,28.2,27.2,00.0,37.3,30.0,16.9,0002.0,0018.85,0006.61,0005.29
2021-10-12 14:28:00,,0816.0,5.01,0.00,28.2,27.2,00.0,37.4,30.0,16.9,0001.9,0017.49,0006.45,0005.24
2021-10-12 14:29:00,,0816.1,4.99,0.00,28.2,27.2,00.0,37.3,30.0,16.8,0002.3,0017.03,0006.34,0005.20
2021-10-12 14:30:00,,0815.9,5.00,0.00,28.2,27.2,00.0,37.3,29.9,16.8,0002.3,0016.67,0006.25,0005.15
2021-10-12 14:31:00,,0815.6,5.00,0.00,28.2,27.2,00.0,37.3,29.9,16.8,0002.1,0015.94,0006.27,0005.14
2021-10-12 14:32:00,,0815.7,5.01,0.00,28.2,27.2,00.0,37.4,30.0,16.9,0002.4,0016.47,0006.35,0005.15
2021-10-12 14:33:00,,0815.7,4.98,0.00,28.2,27.2,00.0,37.3,29.9,16.9,0002.6,0017.09,0006.46,0005.16
2021-10-12 14:34:00,,0815.7,4.99,0.00,28.2,27.2,00.0,37.4,29.9,16.9,0002.5,0016.89,0006.47,0005.15
2021-10-12 14:35:00,,0815.7,5.00,0.00,28.2,27.2,00.0,37.3,30.0,16.9,0002.0,0017.04,0006.47,0005.13
2021-10-12 14:36:00,,0815.7,5.00,0.00,28.2,27.2,00.0,37.3,30.0,16.9,0002.2,0016.32,0006.46,0005.14
2021-10-12 14:37:00,,0815.7,5.01,0.00,28.2,27.2,00.0,37.4,30.0,16.9,0002.0,0015.46,0006.50,0005.14
2021-10-12 14:38:00,,0815.7,4.99,0.00,28.2,27.2,00.0,37.3,30.0,16.8,0002.1,0014.76,0006.59,0005.16
2021-10-12 14:39:00,,0815.6,5.00,0.00,28.2,27.2,00.0,37.3,30.0,16.8,0002.2,0015.79,0006.69,0005.18
2021-10-12 14:40:00,,0815.7,5.00,0.00,28.2,27.3,00.0,37.4,30.0,16.9,0002.4,0015.84,0006.70,0005.19
2021-10-12 14:41:00,,0815.6,5.00,0.00,28.2,27.3,00.0,37.4,30.0,17.0,0002.0,0016.27,0006.72,0005.19
2021-10-12 14:42:00,,0815.8,5.00,0.00,28.2,27.3,00.0,37.4,30.0,16.8,0002.0,0016.20,0006.74,0005.20
2021-10-12 14:43:00,,0816.0,5.00,0.00,28.2,27.3,00.0,37.4,30.0,16.8,0001.8,0016.15,0006.71,0005.20
2021-10-12 14:44:00,,0815.9,4.99,0.00,28.2,27.3,00.0,37.4,30.0,16.8,0001.3,0016.74,0006.68,0005.21
2021-10-12 14:45:00,,0815.8,5.00,0.00,28.2,27.2,00.0,37.4,30.0,16.7,0001.5,0017.25,0006.71,0005.22
2021-10-12 14:46:00,,0815.6,5.00,0.00,28.2,27.3,00.0,37.4,30.0,16.8,0001.7,0017.75,0006.78,0005.26
2021-10-12 14:47:00,,0815.7,5.01,0.00,28.2,27.3,00.0,37.4,30.0,16.8,0001.8,0018.05,0006.79,0005.27
2021-10-12 14:48:00,,0815.7,5.00,0.00,28.2,27.3,00.0,37.4,30.0,16.9,0001.8,0018.13,0006.77,0005.28
2021-10-12 14:49:00,,0815.8,5.02,0.00,28.2,27.3,00.0,37.4,30.0,16.9,0001.9,0018.67,0006.77,0005.28
2021-10-12 14:50:00,,0815.8,5.00,0.00,28.2,27.3,00.0,37.4,30.0,16.9,0002.2,0018.45,0006.81,0005.30
2021-10-12 14:51:00,,0815.7,5.00,0.00,28.2,27.3,00.0,37.4,30.0,16.9,0001.9,0018.52,0006.82,0005.30
2021-10-12 14:52:00,,0815.8,5.00,0.00,28.2,27.3,00.0,37.4,30.0,16.8,0002.0,0018.23,0006.82,0005.31
2021-10-12 14:53:00,,0815.7,5.00,0.00,28.2,27.3,00.0,37.4,30.0,16.8,0002.3,0018.59,0006.80,0005.31
2021-10-12 14:54:00,,0815.7,5.01,0.00,28.2,27.3,00.0,37.4,30.0,16.9,0002.6,0018.43,0006.86,0005.32
2021-10-12 14:55:00,,0815.7,5.00,0.00,28.2,27.3,00.0,37.4,30.0,16.8,0003.1,0017.87,0006.87,0005.31
2021-10-12 14:56:00,,0815.7,5.00,0.00,28.2,27.3,00.0,37.4,30.0,16.8,0003.2,0017.27,0006.84,0005.32
2021-10-12 14:57:00,,0815.7,4.98,0.00,28.2,27.3,00.0,37.4,30.0,16.8,0003.1,0017.67,0006.79,0005.30
2021-10-12 14:58:00,,0815.7,5.01,0.00,28.3,27.3,00.0,37.4,30.0,16.8,0002.9,0017.48,0006.79,0005.29
2021-10-12 14:59:00,,0815.7,5.00,0.00,28.3,27.3,00.0,37.4,30.0,16.8,0002.9,0017.84,0006.77,0005.30
